321P/SOHO (2008)

Japanese version
Home page
Updated on June 14, 2015

---------------------------------------------------------------------

* Profile

Designation 321P/2008 S2

* Orbital Elements

Epoch 2008 Sept. 11.0 TT = JDT 2454720.5
T 2008 Sept. 17.95636 TT                                MPCW
q   0.0466880            (2000.0)            P               Q
n   0.26080580     Peri.  172.42124     +0.92713614     +0.36465643
a   2.4261886      Node   165.26922     -0.35914389     +0.93041537
e   0.9807567      Incl.   19.83515     -0.10693106     +0.03678222
P   3.78
From 90 observations 1997 May 1-2012 June 30.  Nongravitational parameters
     A1 = +0.00, A2 = -0.0002.

* Magnitudes Graph

        m1 = 20 + 5 log d + 10 log r

---------------------------------------------------------------------

The orbital elements are published on M.P.E.C. 2015-K01.
The magnitudes graphs are made with Comet for Windows.

---------------------------------------------------------------------

Copyright(C) Seiichi Yoshida (comet@aerith.net). All rights reserved.